Weather History for West Palm Beach, FL

Change the Weather History Date:

Tuesday, August 20, 2013

  Actual Average Record
Temperature  
Mean Temperature 87 °F 83 °F  
Max Temperature 92 °F 90 °F 95 °F (1951)
Min Temperature 81 °F 76 °F 69 °F (1956)
Degree Days  
Heating Degree Days 0 0  
Month to date heating degree days 0 0  
Since 1 June heating degree days 0 0  
Since 1 July heating degree days 0 0  
Cooling Degree Days 22 18  
Month to date cooling degree days 417 360  
Year to date cooling degree days 2667 2508  
Since 1 June cooling degree days 1482 1399  
Growing Degree Days 36 (Base 50)    
Moisture  
Dew Point 72 °F    
Average Humidity 61    
Maximum Humidity 70    
Minimum Humidity 52    
Precipitation  
Precipitation T in 0.25 in 6.70 in (1988)
Month to date precipitation 2.89 4.93  
Year to date precipitation 46.41 37.70  
Snow  
Snow 0.00 in - - ()
Month to date snowfall 0.0  
Since 1 June snowfall 0.0  
Since 1 July snowfall 0.0  
Snow Depth 0.00 in    
Sea Level Pressure  
Sea Level Pressure 30.03 in    
Wind  
Wind Speed 11 mph (East)    
Max Wind Speed 20 mph    
Max Gust Speed 24 mph    
Visibility 10 miles    
Events Rain    
T = Trace of Precipitation, MM = Missing Value Source: NWS Daily Summary

Daily Weather History Graph

Daily Weather History Graph

Search for Another Location

Airport:

Trip Planner

Search our weather history database for the weather conditions in past years. The results will help you decide how hot, cold, wet, or windy it might be!

Date:

Astronomy

Aug. 20, 2013 Rise Set
Actual Time 6:54 AM EDT 7:52 PM EDT
Civil Twilight 6:30 AM EDT 8:16 PM EDT
Nautical Twilight 6:02 AM EDT 8:44 PM EDT
Astronomical Twilight 5:33 AM EDT 9:13 PM EDT
Moon 7:28 PM EDT (8/20) 6:20 AM EDT (8/20)
Length of Visible Light 13h 45m
Length of Day
12h 57m
Full, 100% of the Moon is Illuminated
Aug 20
Full
Aug 20
Full
Aug 28
Last Quarter
Sep 5
New
Sep 12
First Quarter

Hourly Weather History & Observations

Time (EDT) Temp. Heat Index Dew Point Humidity Pressure Visibility Wind Dir Wind Speed Gust Speed Precip Events Conditions
12:53 AM 84.9 °F 90.7 °F 72.0 °F 65% 30.04 in 10.0 mi East 9.2 mph - N/A   Scattered Clouds
1:53 AM 84.9 °F 90.7 °F 72.0 °F 65% 30.02 in 10.0 mi East 8.1 mph - N/A   Scattered Clouds
2:53 AM 82.9 °F 88.0 °F 72.0 °F 69% 30.01 in 10.0 mi East 16.1 mph - N/A   Mostly Cloudy
3:53 AM 84.0 °F 88.4 °F 70.0 °F 63% 30.01 in 10.0 mi East 8.1 mph - N/A   Scattered Clouds
4:53 AM 82.9 °F 87.5 °F 71.1 °F 67% 29.99 in 10.0 mi East 6.9 mph - N/A   Mostly Cloudy
5:53 AM 84.0 °F 89.6 °F 72.0 °F 67% 30.00 in 10.0 mi East 12.7 mph - N/A   Mostly Cloudy
6:53 AM 82.9 °F 88.0 °F 72.0 °F 69% 30.01 in 10.0 mi SE 8.1 mph - N/A   Mostly Cloudy
7:53 AM 84.0 °F 90.2 °F 73.0 °F 69% 30.02 in 10.0 mi ESE 6.9 mph - N/A   Mostly Cloudy
8:53 AM 86.0 °F 93.0 °F 73.0 °F 65% 30.04 in 10.0 mi SE 13.8 mph - N/A   Mostly Cloudy
9:53 AM 89.1 °F 97.0 °F 73.0 °F 59% 30.05 in 10.0 mi East 17.3 mph - N/A   Mostly Cloudy
10:53 AM 90.0 °F 97.9 °F 73.0 °F 57% 30.05 in 10.0 mi East 18.4 mph 24.2 mph N/A   Mostly Cloudy
11:53 AM 90.0 °F 97.9 °F 73.0 °F 57% 30.06 in 10.0 mi ESE 15.0 mph - N/A   Mostly Cloudy
12:53 PM 91.0 °F 98.2 °F 72.0 °F 53% 30.05 in 10.0 mi ESE 16.1 mph - N/A   Mostly Cloudy
1:53 PM 90.0 °F 97.9 °F 73.0 °F 57% 30.05 in 10.0 mi ESE 16.1 mph 23.0 mph N/A   Mostly Cloudy
2:53 PM 91.0 °F 98.2 °F 72.0 °F 53% 30.03 in 10.0 mi ESE 16.1 mph - N/A   Mostly Cloudy
3:53 PM 91.0 °F 98.2 °F 72.0 °F 53% 30.01 in 10.0 mi East 9.2 mph 23.0 mph N/A   Scattered Clouds
4:53 PM 89.1 °F 98.0 °F 73.9 °F 61% 30.01 in 10.0 mi East 11.5 mph - N/A   Mostly Cloudy
5:53 PM 88.0 °F 95.6 °F 73.0 °F 61% 30.01 in 10.0 mi East 9.2 mph - N/A   Mostly Cloudy
6:53 PM 87.1 °F 94.5 °F 73.0 °F 63% 30.01 in 10.0 mi SE 8.1 mph - N/A   Mostly Cloudy
7:53 PM 84.9 °F 88.8 °F 69.1 °F 59% 30.01 in 10.0 mi NE 10.4 mph - N/A   Mostly Cloudy
8:53 PM 84.9 °F 91.4 °F 73.0 °F 67% 30.03 in 10.0 mi East 3.5 mph - N/A   Mostly Cloudy
9:53 PM 82.9 °F 88.8 °F 73.0 °F 72% 30.05 in 10.0 mi NNE 6.9 mph - 0.00 in Rain Light Rain
10:53 PM 82.9 °F 88.8 °F 73.0 °F 72% 30.06 in 10.0 mi NNE 5.8 mph - 0.00 in   Mostly Cloudy
11:53 PM 82.0 °F 87.9 °F 73.9 °F 76% 30.06 in 10.0 mi ESE 9.2 mph - 0.00 in Rain Light Rain